Theta_e
306 307 308 308 308 308 308 310 310 311 312 316 317 314 313 318 321 322 319 318 319 321 326 330 331 330 331 330 331 333 334 335 335 336 336 334 333 334 336 335 331 329 324 321 320 321 321 323 325 325 328 328 326 326 323 323 321 321 329 329 327 328 323 320 321 321 321 321 320 321 322 322 323 322 321 322 322 323 326 327 327 327 329 328 330 334 334 334
305 307 308 308 308 308 309 309 309 310 312 315 317 316 313 315 320 323 320 318 319 318 320 326 331 330 329 330 331 333 333 335 335 335 335 332 334 336 336 335 331 329 325 322 321 320 321 323 325 325 327 326 325 326 324 324 321 323 329 328 329 327 319 317 317 316 318 319 319 320 321 322 322 321 321 321 322 323 326 328 328 330 333 333 334 335 333 333
305 306 308 308 309 309 309 309 309 310 311 314 317 317 314 313 319 323 322 319 319 320 318 322 330 330 330 331 332 333 334 334 332 333 333 332 336 336 335 335 331 328 325 323 322 320 322 323 326 327 326 324 325 326 325 325 323 322 323 328 330 322 316 316 316 316 317 318 318 318 319 320 321 321 321 321 321 321 324 327 328 332 335 335 335 335 333 333
305 306 308 308 308 309 309 309 310 310 311 314 317 318 315 312 317 322 324 321 319 320 319 324 331 330 330 333 333 333 333 331 329 332 333 333 335 335 336 335 330 326 323 322 321 320 321 324 327 328 327 325 324 325 325 325 325 323 322 328 326 319 317 316 316 317 316 317 317 317 318 318 318 320 321 320 321 321 321 324 326 329 332 333 334 334 332 332
306 307 308 308 309 309 309 310 311 310 311 313 315 318 315 313 316 321 324 322 322 321 320 326 331 331 330 332 333 332 332 330 329 331 332 333 335 335 336 335 331 326 322 321 321 320 321 325 326 326 327 326 324 325 325 323 324 324 323 324 321 317 317 315 315 317 316 317 317 316 317 317 317 318 319 319 321 323 320 321 323 324 326 329 331 332 332 331
306 307 307 308 309 309 309 309 310 311 311 312 315 317 316 315 316 320 325 325 324 321 319 323 326 331 331 331 333 332 331 331 329 328 330 333 334 334 336 336 331 326 324 320 320 321 321 323 325 324 326 327 327 326 325 323 323 326 325 323 320 317 315 315 316 316 316 317 316 316 317 317 317 317 317 317 319 321 319 319 321 323 324 325 326 328 329 328
307 307 307 308 309 309 309 309 310 311 311 312 314 316 315 317 317 319 325 326 325 321 318 320 321 329 332 329 330 329 329 329 325 326 329 332 333 333 335 335 330 325 324 320 320 323 321 323 325 324 326 329 329 326 325 323 323 327 326 323 322 318 315 315 316 316 317 316 317 318 319 318 317 317 317 317 318 318 319 319 320 323 325 325 325 325 324 323
307 307 308 309 309 309 309 309 309 310 312 312 314 316 315 317 317 318 323 325 326 324 319 319 321 329 332 327 326 324 326 328 325 325 326 329 332 330 331 332 328 324 322 320 322 323 322 324 325 325 326 328 328 326 324 323 324 325 327 325 323 319 315 316 317 318 319 318 319 321 320 320 320 318 317 317 318 318 318 319 319 322 325 326 326 324 323 322
307 308 308 309 309 309 309 309 309 310 311 312 314 316 316 317 317 317 322 324 326 328 321 318 323 330 331 325 323 323 325 329 326 325 326 329 332 328 328 328 323 320 321 321 322 323 324 324 324 325 325 326 327 325 322 324 325 324 326 326 321 318 316 316 317 318 320 319 320 321 320 322 321 318 317 318 318 318 317 318 320 322 325 327 325 323 323 323
308 309 308 309 309 309 309 309 309 310 312 313 314 316 316 317 316 316 322 323 323 328 324 318 322 329 328 322 323 325 326 328 327 325 326 329 331 327 324 325 322 319 320 322 321 322 324 324 324 324 324 326 327 324 322 325 326 324 326 324 320 319 318 318 318 318 320 318 319 320 320 322 321 318 320 320 317 318 317 318 322 323 325 326 325 323 321 321
308 309 309 309 309 308 310 310 308 310 312 314 315 317 317 317 316 315 320 323 321 328 325 318 323 329 326 321 323 327 326 327 327 324 326 328 330 327 323 325 326 322 322 323 321 322 324 324 324 323 325 327 326 324 323 325 325 325 325 324 321 321 322 320 319 320 320 319 319 319 319 321 320 318 321 321 318 318 317 319 323 324 325 325 324 323 321 319
309 309 309 309 309 308 310 310 308 310 312 313 315 317 317 317 316 315 319 322 322 328 327 320 327 330 325 322 325 327 326 326 326 324 326 328 328 329 327 326 325 324 326 325 321 323 324 324 325 325 326 326 326 325 324 324 323 325 325 324 323 322 325 323 321 322 320 322 322 320 322 323 320 317 320 323 320 318 317 319 321 323 325 326 325 324 323 320
309 309 310 310 309 307 309 310 309 310 311 313 316 316 317 317 316 315 317 324 324 326 328 324 327 329 323 322 325 326 326 326 326 324 325 327 327 327 326 322 319 321 324 324 322 324 323 323 325 326 326 325 325 326 325 322 322 324 323 325 328 326 327 325 323 324 321 323 323 322 328 329 324 320 321 325 322 319 318 319 319 321 324 325 326 326 325 323
309 310 310 310 309 308 309 310 309 310 310 312 316 317 317 316 316 315 315 323 326 325 326 322 324 326 322 322 325 325 326 325 325 324 324 326 325 323 320 316 317 318 320 321 323 324 324 324 325 325 326 325 324 325 324 321 324 325 323 327 331 330 331 327 323 324 323 323 322 324 328 329 328 326 324 324 323 320 318 319 319 319 321 323 325 327 327 326
309 310 310 310 309 309 310 310 310 311 313 314 316 316 316 315 315 315 314 320 325 327 324 320 322 324 321 322 324 325 325 324 323 323 325 325 322 319 317 317 319 320 320 321 324 324 324 325 326 325 325 325 325 325 325 324 325 326 328 331 331 331 334 327 321 324 324 320 319 324 328 327 327 326 325 324 323 321 319 318 319 319 320 321 322 325 326 327
309 310 310 310 309 309 310 310 310 311 313 315 316 316 315 315 315 314 315 318 322 327 326 325 325 323 322 324 324 325 325 323 323 323 324 325 323 319 317 318 320 321 320 321 322 323 325 326 326 325 323 324 325 325 326 328 328 327 331 334 332 331 331 326 321 322 321 319 318 322 327 327 325 322 322 322 321 320 318 317 318 319 320 320 321 322 324 326
310 310 310 310 310 309 309 310 310 311 313 314 315 315 314 315 316 314 315 317 319 325 328 328 325 321 322 324 324 324 323 322 323 323 323 323 323 320 318 319 320 321 320 321 322 323 326 325 325 326 323 323 325 325 328 331 330 329 331 333 332 330 328 326 324 320 318 319 320 321 322 324 324 320 318 318 319 318 317 317 318 319 321 320 321 322 322 324
310 310 309 310 310 309 310 311 310 310 313 315 314 314 313 314 315 314 315 316 320 326 327 325 322 322 324 323 324 325 323 322 322 322 322 321 321 320 319 320 320 321 323 323 324 325 325 323 324 329 327 324 324 326 330 331 330 330 330 331 332 331 328 326 325 321 318 319 321 321 320 321 321 320 318 317 317 317 317 318 318 319 320 321 321 321 323 324
310 310 309 309 310 309 311 315 314 313 314 315 314 313 314 314 315 315 315 316 322 325 323 321 321 324 325 322 324 325 323 322 321 321 321 320 320 320 319 320 320 322 324 324 324 324 324 322 323 329 330 327 324 325 330 331 329 329 329 329 332 333 330 326 324 321 318 318 319 320 319 319 320 320 319 318 317 316 317 317 317 318 318 320 321 321 322 323
310 310 309 309 310 310 312 315 315 314 315 314 313 314 314 315 316 316 316 318 323 324 321 320 321 323 323 323 325 325 323 322 321 320 321 320 320 320 320 321 322 323 324 324 324 323 323 324 325 327 328 327 324 324 328 328 328 328 328 329 330 331 330 327 323 318 317 319 319 318 319 318 319 319 317 318 318 316 315 316 316 317 317 318 320 320 321 321
309 310 309 309 311 311 313 314 314 314 314 313 314 315 315 315 316 317 316 318 320 322 321 320 321 323 322 323 325 324 322 322 320 320 321 321 320 320 322 322 322 324 324 323 324 322 323 325 326 325 325 325 324 325 325 326 327 327 329 329 328 330 329 324 321 318 316 319 322 320 319 319 319 319 318 317 318 316 315 315 316 317 317 318 319 320 321 320
309 308 309 310 311 313 313 313 313 313 313 313 314 315 315 315 316 316 316 318 318 319 321 320 321 323 323 324 325 324 322 321 320 320 320 321 320 321 322 322 322 323 323 322 323 324 325 326 325 324 324 323 324 325 325 326 327 328 331 331 331 331 326 319 317 317 316 320 324 322 320 320 319 320 318 316 317 317 318 317 317 318 317 317 318 319 321 321
309 308 310 312 312 313 313 312 312 312 312 313 313 314 314 314 315 315 316 318 319 320 320 320 322 322 323 325 325 323 322 320 320 319 320 320 321 322 323 322 323 324 323 323 324 325 326 326 324 323 323 323 325 325 325 326 327 330 332 332 332 331 328 326 319 315 316 319 321 320 319 318 317 319 318 316 318 318 319 319 318 319 318 318 318 318 320 320
311 310 311 312 312 312 312 312 312 313 313 312 313 314 313 313 314 315 314 315 318 320 320 320 322 323 324 325 324 323 322 321 320 320 320 321 322 323 323 323 324 324 323 323 324 325 326 325 323 323 324 324 325 325 326 327 328 330 331 331 334 332 330 329 321 315 317 320 319 317 320 324 321 320 319 317 317 317 318 319 318 318 319 318 318 317 318 318
313 312 311 311 311 311 312 313 313 313 313 312 313 313 313 313 313 314 314 313 317 320 320 320 322 323 324 324 323 323 322 321 320 321 320 321 323 323 323 324 325 325 324 323 324 326 326 324 323 324 325 325 326 326 326 327 329 330 331 331 334 333 327 322 321 320 325 329 324 317 326 337 331 324 322 321 319 318 316 316 317 318 318 317 317 317 317 317
312 310 310 309 309 310 311 313 313 312 312 312 314 313 313 313 313 314 313 313 318 320 320 321 323 324 323 323 322 322 323 322 320 321 321 322 323 323 324 324 325 325 324 323 325 326 325 323 324 325 325 326 327 327 327 327 329 331 333 333 333 332 326 321 323 327 331 333 325 317 326 335 330 324 324 324 323 322 319 316 316 318 318 317 317 317 317 317
311 309 308 309 309 309 310 312 312 312 312 312 313 313 313 313 313 313 313 317 321 320 320 321 323 324 323 322 322 322 324 323 321 321 322 323 323 323 324 325 325 325 323 324 326 327 324 324 325 325 326 327 327 327 327 326 329 333 335 334 333 332 329 324 326 331 333 331 325 320 322 325 325 323 322 321 322 323 321 319 317 317 318 319 318 317 317 317
310 309 309 310 311 311 312 312 312 311 311 312 313 313 313 313 313 312 313 321 323 319 320 321 322 323 322 322 321 322 323 322 322 323 321 323 324 323 324 324 324 324 322 324 326 325 324 325 325 325 326 326 326 327 328 326 330 333 332 332 332 332 331 328 329 331 329 330 330 324 320 325 329 329 325 322 322 322 322 321 318 317 318 319 319 319 318 317
309 308 309 311 312 312 311 312 312 311 311 312 312 313 313 313 313 311 313 320 322 319 320 321 322 323 322 321 321 321 321 321 323 323 321 323 324 322 324 323 323 323 322 323 326 324 324 324 324 324 326 325 326 327 328 328 327 326 326 328 329 330 330 330 332 333 327 328 331 326 323 328 332 332 328 323 324 323 322 321 318 317 318 318 319 320 319 318
308 307 309 311 311 310 310 312 312 311 311 311 312 313 313 313 312 313 316 318 319 319 320 322 322 323 323 322 322 322 321 322 322 322 321 322 322 322 323 323 322 323 324 324 324 322 321 323 324 324 325 324 325 325 326 327 324 323 326 327 327 329 330 330 332 333 330 328 330 328 326 328 331 333 329 323 324 323 321 321 319 317 318 318 319 320 320 319
308 307 308 308 308 308 310 312 311 311 311 311 312 313 313 312 311 315 318 316 317 318 319 322 323 323 323 322 324 323 322 322 322 321 321 321 321 322 322 324 323 323 324 324 322 320 322 325 324 323 323 323 325 325 323 323 322 326 331 330 329 330 331 331 328 328 331 331 329 327 325 324 329 335 331 324 324 323 321 322 321 318 317 318 319 320 320 320
307 307 308 308 308 308 310 311 311 311 311 311 312 312 312 312 312 317 316 315 318 317 316 321 324 323 323 323 324 323 323 323 322 321 321 322 322 322 322 324 324 325 326 324 322 322 324 325 323 322 322 323 326 326 324 324 324 327 329 329 331 330 330 332 328 326 330 329 325 323 323 323 325 327 326 323 322 322 320 319 319 318 317 318 319 319 320 320
307 308 309 309 308 308 310 311 310 310 311 311 311 311 312 313 314 316 314 314 317 315 314 319 323 323 323 324 324 323 323 323 323 322 321 322 323 323 323 322 322 326 327 323 322 322 324 324 323 323 323 322 325 326 326 326 325 325 325 328 332 329 330 333 329 327 329 326 321 320 322 325 326 325 324 322 320 319 318 317 318 318 318 319 318 319 320 319
307 308 308 308 307 307 309 310 310 310 310 310 311 311 312 314 315 315 314 313 312 312 314 317 322 324 323 324 324 323 324 324 322 322 322 323 324 324 324 322 321 323 323 322 322 323 326 325 323 323 323 323 324 325 327 326 324 324 325 328 330 329 331 332 329 329 329 323 317 318 323 329 330 329 325 319 316 315 315 318 319 318 317 318 317 318 319 319
308 308 307 307 307 307 308 309 309 309 309 310 310 311 313 315 316 315 314 312 309 311 313 314 320 325 324 323 323 322 323 324 323 323 323 324 324 324 324 322 322 322 322 323 322 322 326 325 321 321 321 323 324 323 323 324 324 325 327 329 329 330 333 331 328 329 328 323 319 319 325 329 328 325 320 315 316 316 314 315 318 318 317 316 317 317 317 318
308 308 307 307 308 308 308 308 308 309 309 309 309 311 313 313 314 315 314 311 310 311 313 314 319 325 325 323 323 323 322 323 323 323 324 324 324 323 323 322 321 321 321 322 322 322 325 324 320 319 320 321 323 321 320 323 326 326 327 327 327 329 333 331 327 324 324 326 324 321 324 326 324 323 321 320 322 319 315 314 314 316 317 315 315 316 316 317
308 308 308 308 308 308 308 308 308 309 308 309 311 312 311 310 311 313 313 312 311 312 314 317 318 320 323 323 322 323 322 322 323 324 324 324 324 323 322 322 321 320 320 320 321 322 323 322 319 320 321 320 319 320 319 321 324 326 326 325 324 326 330 330 328 324 324 328 326 321 322 325 324 327 329 325 323 323 320 316 313 313 315 315 315 317 317 317
308 308 308 308 308 308 307 307 308 309 307 309 312 310 308 309 310 312 313 313 313 314 315 317 315 315 319 322 322 322 322 322 323 323 323 324 325 323 322 322 321 319 319 318 320 321 322 322 318 318 321 320 318 321 322 320 319 323 324 322 325 329 328 328 329 328 327 327 327 323 322 324 324 326 328 323 322 327 324 320 317 314 312 314 315 316 316 315
308 307 306 307 308 307 307 307 307 307 307 309 312 310 308 309 309 310 312 313 315 316 315 314 313 313 316 320 322 322 322 323 323 323 323 324 325 323 321 322 321 319 317 317 321 320 319 322 320 317 319 321 321 322 324 323 319 320 322 321 326 328 326 327 329 329 329 327 328 326 322 326 327 323 324 322 321 324 322 321 320 314 312 314 315 314 313 313
307 306 305 306 308 308 307 307 307 306 307 309 310 309 308 308 308 308 310 313 315 317 315 313 312 314 315 318 322 322 322 323 322 323 323 323 324 323 320 321 321 320 317 317 320 319 317 321 321 317 316 321 323 322 323 324 320 320 323 323 325 323 323 328 327 328 330 328 329 327 324 332 334 323 320 321 320 321 321 323 319 312 313 316 314 314 313 312
306 305 304 306 307 308 307 307 306 305 307 309 308 307 307 307 307 307 308 311 313 314 314 313 312 313 313 316 320 322 322 323 322 323 323 322 324 323 321 320 320 319 318 318 319 319 319 321 319 317 318 321 323 320 320 322 321 321 323 324 324 322 322 327 326 326 327 327 331 329 326 335 337 324 320 320 320 320 318 318 316 313 314 316 315 315 314 313
305 304 304 305 306 307 307 306 306 306 307 308 307 307 308 306 306 307 308 309 311 312 313 313 311 311 311 313 317 319 322 323 322 322 323 322 322 323 321 320 320 319 319 319 319 317 319 320 318 317 318 318 319 316 316 319 320 320 322 324 325 321 320 325 326 326 325 325 326 325 325 332 333 326 323 320 317 316 315 315 315 315 316 317 316 315 315 314
303 303 304 305 305 306 306 307 306 307 307 308 307 307 307 306 305 306 307 308 310 312 313 314 312 311 310 311 313 315 318 322 322 321 322 322 321 321 320 319 320 320 319 320 319 317 318 319 317 317 316 315 316 314 314 317 320 320 321 322 324 322 320 324 326 325 326 324 323 324 325 331 335 328 318 312 311 312 314 316 316 316 317 316 316 315 314 314
302 302 303 305 305 305 307 307 306 307 307 306 307 307 306 306 305 306 307 307 309 311 313 314 313 312 311 311 312 313 315 319 322 321 321 321 320 319 319 319 320 320 320 320 319 318 320 319 317 318 319 318 318 318 317 318 319 320 320 320 322 322 322 325 324 321 323 324 324 326 326 329 336 331 316 312 314 311 311 315 316 316 315 315 314 314 314 314
302 303 303 304 305 305 306 307 306 306 306 306 307 307 307 306 306 306 306 306 307 309 310 311 312 312 312 311 311 311 310 314 320 321 322 321 319 319 319 319 320 320 320 319 317 318 321 318 317 320 322 322 323 322 321 320 318 320 321 319 321 322 322 323 322 320 322 323 322 324 326 328 334 330 320 319 321 314 310 312 314 314 314 313 313 312 312 312
302 303 304 304 304 304 305 305 305 306 306 307 307 306 307 307 306 306 307 307 307 307 307 309 310 311 312 311 311 312 310 310 313 317 321 321 320 319 319 319 320 319 319 318 316 319 321 318 317 320 321 322 323 322 320 319 319 320 321 320 320 321 321 322 322 322 322 322 321 321 322 324 326 325 323 322 322 320 315 311 312 313 313 313 313 313 312 312
302 303 304 304 304 304 304 304 305 306 306 306 307 306 307 307 306 306 306 307 307 306 307 308 308 310 312 311 312 312 311 310 311 314 317 319 320 320 319 319 320 319 319 318 316 319 321 318 317 319 318 319 321 321 319 319 319 319 320 321 320 320 321 322 322 323 322 322 322 321 320 320 320 321 324 323 321 322 317 311 311 313 312 312 313 313 312 311
302 302 303 303 304 304 304 304 304 305 306 306 306 307 307 307 306 306 306 307 307 306 307 308 308 309 311 311 313 313 311 312 313 314 316 319 320 321 320 320 320 318 318 318 316 318 320 319 318 318 318 319 320 321 320 320 319 319 319 320 320 320 321 321 321 321 322 322 323 321 321 321 319 318 321 321 319 318 315 314 314 313 312 313 313 312 312 312
301 302 302 302 303 304 304 304 305 305 306 306 306 306 306 306 306 306 306 307 307 306 307 309 308 308 308 310 313 313 313 314 314 313 315 318 320 321 321 321 321 318 318 318 317 317 320 320 318 318 318 319 320 320 320 319 319 319 318 319 320 319 320 320 320 320 321 321 321 321 321 321 319 319 319 317 316 316 315 316 316 314 313 313 312 312 312 311
301 302 302 301 302 303 303 304 305 305 305 306 306 305 305 306 307 307 306 306 307 306 306 307 308 307 306 307 310 312 312 314 315 314 314 317 320 320 321 321 321 319 319 319 318 317 320 321 318 317 318 318 318 318 319 319 320 319 319 318 319 319 319 319 320 320 320 321 320 320 321 320 318 317 316 315 316 316 316 315 315 314 314 313 313 312 312 312
301 301 301 302 303 303 303 304 305 305 304 305 306 306 305 306 307 307 307 306 307 307 306 306 307 307 306 306 308 311 311 310 312 313 314 316 317 317 318 319 319 320 320 319 318 318 321 320 317 317 319 318 317 317 318 319 319 319 319 318 318 319 319 319 319 319 320 320 320 320 321 320 318 317 316 315 314 313 312 313 313 314 314 314 313 313 312 312
301 301 301 303 303 303 304 305 305 305 305 305 305 306 306 306 307 308 308 307 307 307 306 306 307 307 307 308 308 309 309 307 308 310 311 313 313 313 314 314 315 319 320 319 318 319 321 319 317 317 319 319 317 316 316 318 318 319 318 317 318 318 318 319 319 319 319 319 320 320 319 319 319 319 318 317 315 312 311 312 313 313 314 314 313 313 312 311
Wind_Speed
40 38 37 37 37 38 39 37 38 40 37 36 35 36 38 35 39 46 47 52 54 51 43 35 34 33 32 32 33 34 34 36 35 35 36 35 34 32 34 34 30 29 28 25 23 23 23 21 19 18 17 16 13 13 11 5 2 1 2 2 2 2 1 1 1 2 6 4 3 5 4 4 4 4 8 6 7 10 8 7 7 5 5 4 6 11 17 20
42 40 38 38 37 38 39 39 39 40 39 38 36 36 39 37 38 44 48 49 50 56 54 43 36 34 33 34 34 34 35 36 35 38 38 33 34 34 34 35 31 30 29 28 27 26 26 24 21 20 18 15 11 12 12 8 5 1 2 2 2 2 1 2 3 3 3 8 8 7 4 5 6 6 7 4 5 10 8 7 8 10 11 11 13 16 17 18
44 42 40 39 38 38 40 40 40 41 41 40 37 37 40 39 38 43 49 49 49 54 56 50 40 35 35 37 36 34 36 34 33 38 38 34 35 35 33 35 33 30 30 30 27 26 26 25 22 20 18 14 10 11 11 11 7 1 2 2 3 3 4 6 7 6 5 11 12 8 6 7 6 6 6 3 4 7 8 9 10 14 18 18 19 19 18 18
45 43 41 40 40 39 40 41 41 42 42 41 40 38 41 40 38 43 48 47 48 50 51 50 42 38 38 39 38 36 35 26 29 39 35 35 36 35 35 34 34 31 30 29 26 24 24 24 21 19 17 11 10 12 10 12 9 2 3 3 3 3 4 3 5 7 7 9 9 9 7 6 5 6 4 3 2 4 9 14 12 14 21 22 22 21 18 17
45 44 42 41 41 40 41 41 41 42 43 43 42 40 41 41 38 42 47 46 47 47 46 47 41 39 39 40 39 38 33 13 22 39 34 34 36 35 36 33 35 33 30 28 27 25 23 23 20 18 14 9 11 10 9 15 12 3 3 5 2 3 3 2 6 6 6 6 7 9 7 3 3 4 3 3 3 3 4 8 13 16 19 20 21 21 19 18
44 44 43 42 42 40 41 43 42 42 44 45 43 42 41 40 39 41 46 45 46 46 47 48 43 41 40 41 40 40 34 8 10 35 35 34 36 34 36 34 34 34 31 29 29 27 25 25 22 19 13 7 10 7 9 17 13 4 5 8 4 3 6 5 6 5 4 5 6 7 4 3 2 0 3 6 7 6 3 1 5 13 18 17 18 19 19 18
44 44 43 43 42 41 42 43 44 42 43 45 43 42 42 40 39 41 47 44 42 44 49 52 47 47 42 39 40 38 38 16 2 23 36 35 35 33 34 35 35 34 33 32 31 30 30 30 25 22 13 6 9 6 10 18 13 5 2 9 8 4 9 7 6 5 4 5 5 4 2 2 2 1 2 6 9 8 7 7 3 8 18 19 17 17 16 15
43 44 44 44 42 42 42 43 44 42 42 44 43 42 42 42 39 40 48 45 39 42 51 55 50 50 42 36 40 32 34 29 6 12 33 37 34 34 32 34 36 34 35 35 33 32 33 32 27 23 12 6 11 9 11 14 9 6 2 6 9 6 11 7 5 4 1 3 2 1 0 2 2 3 4 7 9 8 9 8 4 8 18 21 17 15 15 15
43 44 44 44 43 43 43 43 44 42 42 44 43 43 43 43 40 38 47 47 42 42 50 54 50 48 41 37 37 23 29 35 12 7 27 39 37 35 34 36 39 36 38 38 33 31 31 30 27 23 13 10 14 11 13 11 5 10 10 7 6 6 10 8 6 5 3 3 2 2 3 5 4 3 6 9 10 11 12 10 8 10 18 21 17 15 15 16
43 44 45 45 44 44 44 44 44 41 41 44 43 44 44 44 41 38 45 50 46 44 48 51 49 46 40 39 28 13 29 37 15 8 22 37 40 36 36 38 41 41 40 40 35 28 25 26 24 21 14 12 15 14 15 10 4 14 16 9 5 4 6 7 8 6 5 5 5 4 5 7 6 3 5 7 4 8 14 13 12 14 18 20 18 16 15 15
42 44 45 45 44 45 45 43 44 42 41 43 43 44 45 45 43 38 43 52 50 47 53 56 51 48 40 38 25 12 28 35 19 14 19 33 41 39 39 38 40 44 42 41 36 26 23 24 22 18 12 10 14 13 12 9 7 16 18 8 3 2 2 5 8 7 6 4 8 8 5 8 7 4 9 12 5 6 14 16 16 17 18 20 19 18 17 15
42 43 44 44 44 46 45 43 45 42 41 44 43 44 44 45 44 40 43 50 50 50 59 59 50 47 39 32 29 20 25 31 23 18 18 29 38 37 38 36 38 43 44 44 37 26 26 27 23 15 11 14 13 7 9 10 9 14 14 6 2 1 4 8 9 9 8 3 7 7 3 6 6 8 15 18 12 8 14 18 18 19 19 20 20 20 20 17
41 43 44 43 44 47 45 43 44 43 43 45 43 43 43 45 44 41 44 47 47 49 55 55 48 44 36 26 29 26 24 30 26 21 22 27 34 37 37 36 38 40 42 46 38 29 30 29 22 15 14 18 11 6 10 11 11 10 7 4 2 1 4 12 13 12 10 6 9 7 2 5 6 14 21 22 21 17 17 20 20 20 21 21 21 21 21 20
41 43 43 43 44 46 45 43 44 42 44 45 44 45 44 45 44 42 46 45 44 50 50 52 50 43 32 22 26 27 25 29 28 25 28 31 38 41 38 37 38 38 39 41 36 30 31 27 20 15 14 17 12 10 11 8 7 6 3 2 3 3 4 8 12 13 8 8 14 11 4 6 3 12 18 18 24 25 22 24 22 22 22 23 23 23 23 22
42 42 42 43 43 45 45 44 43 43 44 45 45 45 45 44 44 44 48 46 44 53 57 55 54 44 27 17 23 29 28 31 31 29 31 36 43 42 38 38 36 36 36 37 36 31 28 23 18 12 10 15 15 11 6 3 2 2 3 2 2 5 4 5 7 15 10 6 14 12 3 7 5 13 17 15 20 27 26 25 24 24 23 24 25 25 25 23
43 43 42 42 43 45 45 44 44 45 45 45 45 44 44 42 43 44 48 49 41 49 60 55 55 48 23 12 23 33 34 36 34 32 33 37 44 43 40 39 34 31 30 29 33 31 23 18 16 13 10 11 11 8 4 3 1 2 3 3 4 5 2 4 2 12 14 5 7 8 4 4 4 9 13 12 18 25 26 23 24 25 23 25 27 27 26 25
42 43 43 43 45 46 46 44 44 46 47 47 46 45 43 41 42 44 50 49 37 45 60 54 58 48 18 15 28 35 38 39 36 35 38 40 43 45 42 39 33 28 26 23 27 29 21 15 13 10 8 5 5 7 6 4 3 3 3 2 4 4 3 2 2 6 11 6 6 8 5 6 6 4 6 12 18 22 23 23 24 25 24 25 27 28 28 27
42 42 44 45 46 46 45 45 46 47 47 48 47 44 42 41 41 44 49 43 33 44 54 50 55 33 8 21 33 37 42 40 39 38 41 43 42 46 45 38 34 31 29 22 23 28 20 13 10 5 4 5 6 7 6 6 7 7 7 3 2 3 5 5 2 5 9 5 6 7 7 11 9 7 7 10 14 17 20 22 23 25 25 25 26 29 29 29
41 41 44 46 46 45 44 47 51 50 49 47 44 43 42 40 39 42 46 40 33 31 24 34 46 18 10 36 40 41 45 41 41 40 42 44 41 43 41 36 38 36 27 16 16 25 18 9 7 5 6 7 7 7 6 7 10 10 9 6 4 4 5 7 4 6 11 6 5 8 9 10 9 8 12 15 14 14 18 20 21 23 25 26 28 29 30 30
43 42 44 46 45 46 47 47 48 49 49 46 44 42 37 31 23 24 34 39 39 26 17 42 52 25 24 43 43 40 42 41 41 42 43 45 44 40 35 34 35 29 19 12 13 21 19 9 7 9 10 11 11 9 7 6 8 9 7 5 6 5 4 7 5 5 10 8 6 10 9 9 9 8 11 19 18 16 19 20 22 23 23 26 29 31 30 30
44 44 45 46 46 49 49 46 43 46 48 46 49 42 33 30 16 14 26 31 40 31 29 59 56 30 31 44 47 47 44 39 41 45 43 46 47 35 28 30 23 13 13 13 12 15 15 9 9 12 13 14 13 11 9 7 6 6 6 5 6 5 3 3 3 4 7 4 5 7 7 10 10 8 11 16 14 15 23 22 22 24 23 24 28 32 32 28
45 46 46 46 48 50 49 46 43 45 46 46 51 42 35 39 28 26 31 18 24 29 33 60 46 26 38 45 48 53 46 33 33 43 44 47 46 31 26 26 15 9 12 12 9 9 10 8 9 12 12 13 11 10 9 7 4 4 4 4 4 4 1 3 2 3 5 2 3 3 5 9 9 9 11 15 15 19 27 28 27 27 26 26 27 30 32 29
45 46 49 50 50 50 47 45 43 43 45 46 49 42 36 39 30 30 29 8 4 18 35 53 40 34 44 42 46 50 40 29 28 38 46 48 42 35 32 22 12 13 13 13 12 11 8 7 11 13 13 13 10 10 9 5 3 3 4 4 4 4 4 1 2 2 2 2 2 1 4 7 7 7 10 18 24 24 27 29 31 32 32 32 30 30 31 31
50 51 51 50 50 48 44 44 45 45 46 45 46 44 39 41 36 29 20 4 3 14 38 46 39 45 46 44 54 51 39 37 37 42 49 46 37 33 30 20 15 14 13 16 15 11 6 8 16 14 11 13 11 11 10 5 4 4 5 5 4 4 4 3 3 2 1 3 1 2 5 6 5 7 9 15 20 21 23 23 25 32 35 35 34 33 33 33
55 55 48 46 46 46 46 45 46 46 44 43 41 42 41 43 44 31 15 4 4 12 35 36 26 37 44 46 52 45 36 36 39 48 51 46 39 28 20 20 17 11 13 17 13 8 5 13 22 15 11 14 12 11 11 7 5 4 5 7 6 5 4 5 7 5 4 4 3 1 2 5 4 5 8 7 7 12 17 17 21 29 33 35 35 36 37 35
51 48 43 43 42 44 45 40 42 43 38 37 36 38 41 41 41 31 12 4 4 8 22 24 16 26 39 41 43 37 26 20 31 48 48 42 44 34 18 14 11 10 15 13 7 3 4 14 19 13 13 14 11 10 9 8 6 3 5 7 8 6 7 8 7 5 2 3 3 2 3 5 6 5 8 7 5 9 11 13 22 28 29 32 35 37 38 38
44 43 43 43 42 46 43 36 39 41 35 33 35 35 37 38 39 29 9 2 6 8 16 20 17 25 35 41 46 32 15 16 24 38 43 37 40 36 21 12 9 11 14 9 4 3 8 15 15 13 13 11 10 8 7 9 7 3 5 8 9 6 7 8 7 4 3 2 3 3 2 3 6 6 9 8 8 10 9 10 17 25 29 33 35 37 39 39
44 45 44 42 45 49 44 39 42 43 38 35 37 36 34 39 41 25 5 3 7 9 12 16 18 27 36 46 49 28 23 34 23 26 42 38 36 30 18 14 13 13 15 12 7 4 11 16 14 14 12 8 9 6 8 12 6 4 4 6 8 6 6 7 6 3 1 2 3 4 2 1 6 6 6 5 7 10 11 11 13 22 30 34 37 39 39 39
47 45 43 41 43 42 35 37 41 39 37 37 38 38 37 43 38 16 1 4 6 7 10 17 18 24 33 38 35 24 30 33 19 28 41 36 37 28 15 18 18 14 12 9 6 4 9 17 19 15 9 8 9 7 9 11 6 3 4 6 5 4 5 5 5 4 2 0 4 4 2 1 6 6 3 3 5 9 10 9 12 21 30 34 37 39 38 36
47 43 42 40 39 36 29 32 36 32 35 38 38 40 42 38 23 8 4 4 3 3 9 16 16 21 29 24 16 20 24 15 17 31 23 17 28 22 17 26 22 14 5 4 5 4 5 17 20 13 10 10 10 9 9 9 9 7 6 8 7 5 5 4 3 4 2 2 4 7 6 3 4 5 5 5 5 7 8 7 9 16 24 30 33 36 37 37
46 42 41 38 37 36 30 31 31 29 36 40 39 43 37 20 6 4 6 1 2 3 5 12 16 22 29 21 11 18 18 9 20 27 10 6 13 11 16 17 12 10 5 4 4 1 5 13 10 6 12 14 11 8 4 6 12 9 5 5 5 3 4 3 3 2 2 4 3 7 9 6 6 6 4 5 6 6 7 7 9 12 18 25 28 30 32 35
43 40 38 37 37 36 32 33 35 36 39 40 42 41 25 6 2 5 3 3 2 3 2 8 16 21 25 21 15 19 17 11 17 20 13 11 10 10 14 11 9 10 7 8 7 3 7 7 2 4 11 15 12 6 2 3 8 6 5 7 5 1 0 1 1 0 3 3 1 5 6 4 8 8 7 12 14 11 10 12 12 14 20 22 22 23 26 29
40 38 36 35 34 31 30 34 39 43 43 42 40 27 9 2 5 3 2 2 1 0 1 3 14 23 23 19 15 17 18 15 19 19 15 14 11 12 15 14 16 12 8 13 9 6 6 2 2 6 7 13 15 9 5 4 7 8 7 8 6 4 3 5 3 1 3 3 2 3 5 3 6 6 10 15 17 16 18 21 21 19 17 13 11 13 17 23
40 37 35 32 28 26 29 34 38 42 45 44 31 13 4 6 4 3 3 4 0 1 1 1 14 25 20 15 15 17 14 12 19 20 14 14 13 11 11 12 16 9 9 12 4 7 10 2 7 9 5 10 13 10 7 6 6 6 5 6 6 5 4 5 4 2 3 1 2 2 3 4 3 3 8 12 15 17 18 22 23 19 13 7 5 5 7 12
39 36 32 28 24 23 29 36 37 37 40 34 16 7 9 7 3 3 3 4 2 3 1 4 10 22 16 10 15 18 11 11 21 19 12 14 13 13 13 13 16 11 12 12 4 7 11 4 6 8 6 11 11 6 9 10 4 2 3 5 4 5 4 2 3 4 4 2 2 3 3 5 4 8 12 12 14 13 11 12 17 16 12 10 10 9 8 8
36 34 29 25 25 27 31 37 38 40 40 24 6 5 7 2 2 4 4 5 4 6 4 3 4 15 14 8 13 16 7 8 22 17 11 14 14 15 16 13 16 17 15 14 6 6 10 4 4 6 5 9 13 10 12 13 7 2 4 6 5 4 6 3 2 1 4 2 3 3 5 5 4 9 12 11 10 8 5 7 11 14 13 13 14 13 13 14
34 33 29 25 27 30 30 33 39 44 35 15 4 5 2 1 1 2 4 7 6 6 6 2 2 6 10 9 12 16 8 7 18 14 9 13 11 15 16 11 14 16 15 13 5 2 7 3 2 5 4 5 12 13 10 9 8 5 6 7 4 3 3 3 2 0 2 4 3 3 5 5 3 5 7 7 7 7 6 7 9 11 13 14 17 18 19 19
35 33 29 27 31 32 28 28 37 38 20 4 3 4 1 0 1 1 3 6 7 6 4 2 0 1 6 10 11 14 13 11 14 11 10 10 7 13 17 11 13 15 14 15 7 3 8 5 3 2 5 5 7 10 6 3 2 5 7 8 6 2 2 4 3 3 5 4 3 2 5 5 5 5 6 9 9 7 6 7 7 8 12 16 19 20 18 15
37 28 18 23 33 33 29 31 35 27 8 1 3 3 1 2 1 4 2 3 5 6 4 2 2 2 2 8 11 14 14 14 14 10 9 8 5 13 18 12 12 15 16 16 9 5 7 6 1 2 1 5 5 5 8 6 0 3 6 7 5 2 3 4 3 2 4 4 2 1 2 5 6 6 8 15 16 10 7 7 7 9 15 19 18 16 14 11
33 18 6 20 33 32 34 35 30 16 3 1 3 2 1 2 1 6 7 3 2 3 4 3 2 1 1 2 9 11 10 14 16 10 7 9 8 12 18 14 12 16 17 13 8 7 5 4 5 1 2 4 6 6 11 12 7 6 8 8 6 3 2 2 2 2 3 4 3 2 3 5 6 6 10 15 15 9 8 8 7 12 18 20 18 16 13 12
26 10 4 20 30 33 37 27 14 5 1 1 2 2 2 3 1 6 11 8 5 4 5 6 4 3 1 0 5 8 7 11 15 10 6 10 10 8 16 19 16 17 16 10 7 8 4 3 7 6 3 8 8 4 5 10 10 8 7 8 8 6 4 3 4 3 3 4 4 4 4 7 6 4 6 11 9 8 9 10 9 16 21 21 19 17 15 14
17 7 7 20 27 36 34 13 2 2 1 2 3 3 5 5 2 4 8 8 6 4 5 6 4 3 2 1 1 3 4 8 13 11 6 12 12 9 18 26 24 21 16 10 9 7 4 5 7 6 4 4 3 2 1 5 8 5 3 5 6 5 6 7 7 5 4 4 2 2 3 7 6 4 5 7 7 9 12 13 12 16 22 21 18 17 16 15
13 8 12 20 25 30 21 5 3 4 2 2 5 5 5 4 3 3 5 6 4 3 3 4 4 3 2 1 1 2 3 4 12 11 8 13 13 9 19 29 26 20 13 9 9 6 5 6 6 5 2 2 2 3 4 3 5 5 5 6 8 9 9 6 4 4 5 5 4 2 5 6 6 4 3 2 1 4 8 11 13 12 14 16 16 16 16 15
16 13 13 20 24 20 8 2 4 4 1 3 5 5 5 5 3 3 4 4 3 2 2 2 3 4 3 2 2 3 4 1 9 10 7 9 9 11 25 34 29 20 13 10 12 10 5 5 7 8 4 1 2 1 1 1 5 7 8 9 11 13 11 5 2 4 3 5 7 6 6 6 5 4 4 5 4 3 5 10 13 12 13 13 13 14 14 14
17 11 9 14 21 14 1 0 5 5 4 4 4 5 5 5 4 5 6 5 4 3 2 2 3 5 6 5 4 4 4 3 4 5 2 4 5 10 24 35 31 20 13 16 19 12 6 6 9 10 10 8 9 9 8 7 7 6 8 13 14 15 14 9 4 4 5 5 7 7 7 5 6 6 5 5 2 1 4 9 10 10 11 12 11 12 13 14
8 4 6 8 12 7 3 2 5 5 4 4 4 3 3 3 4 6 7 5 4 5 3 2 3 5 8 8 5 3 2 4 2 1 2 4 4 6 23 34 29 23 20 25 28 14 4 5 10 10 12 12 9 6 6 8 7 7 11 15 14 11 12 10 6 8 9 4 4 8 7 5 7 7 6 7 4 4 5 5 6 7 9 10 10 11 13 15
4 2 4 4 5 5 1 3 4 4 4 4 3 2 3 5 4 4 5 3 3 3 3 3 3 3 7 8 5 4 3 3 2 1 2 3 1 5 23 29 25 25 22 23 27 15 4 6 11 11 14 11 6 6 9 10 12 13 14 16 15 11 11 12 12 13 10 5 6 14 12 11 14 9 8 10 7 6 6 7 10 11 11 11 11 13 15 17
5 4 4 3 2 2 1 1 2 5 6 5 3 3 5 5 4 3 3 3 4 2 2 3 3 3 4 5 3 5 6 3 2 0 2 2 1 7 16 16 17 24 19 14 18 12 4 7 11 11 12 9 7 10 11 11 12 13 15 17 18 17 16 17 17 17 13 9 14 19 15 18 18 11 11 13 8 6 8 9 11 10 10 12 15 17 19 19
9 10 6 3 3 4 5 5 5 7 7 5 3 4 6 6 5 3 2 3 3 1 1 3 2 2 3 2 2 5 7 3 3 4 1 2 1 6 11 9 11 18 16 10 10 7 5 7 9 10 10 7 9 12 13 14 12 12 15 17 18 19 20 20 19 18 15 12 17 19 16 20 17 10 12 15 15 18 16 13 14 13 13 18 21 22 21 22
10 9 6 5 6 6 6 5 6 7 5 3 3 3 5 7 6 3 2 3 3 1 2 3 4 5 4 3 3 4 5 2 2 5 5 3 0 0 6 6 5 10 12 7 6 7 7 7 9 10 7 5 9 11 14 16 15 14 16 17 16 17 17 18 17 17 14 14 20 21 18 20 12 8 10 17 22 24 19 16 19 20 22 24 24 25 25 25
11 11 14 12 6 3 5 3 4 6 4 2 3 4 5 5 7 5 2 3 5 5 5 5 6 6 5 3 2 1 2 2 3 4 4 4 3 4 1 1 2 9 11 6 4 7 8 6 8 9 7 7 10 11 13 14 13 13 15 16 17 17 17 19 19 18 16 17 20 19 18 18 7 8 11 15 17 17 17 21 26 26 27 28 27 28 29 29
16 16 18 15 5 1 4 2 3 5 3 1 2 3 4 6 8 7 3 2 4 7 9 9 8 4 3 4 3 3 1 1 2 4 6 8 8 8 7 7 4 5 10 8 6 6 7 7 6 9 10 8 8 10 10 9 8 10 14 19 23 22 20 18 17 18 18 17 15 15 17 13 5 8 12 11 9 12 17 24 28 29 30 30 31 32 32 30
Wind_Direction
253 249 247 242 237 234 234 231 229 228 226 226 229 228 224 223 220 220 229 235 235 234 233 229 214 206 207 204 202 198 200 205 204 202 204 204 204 204 201 199 197 194 189 182 181 180 175 173 181 182 179 185 191 194 197 209 207 96 99 134 246 223 167 262 281 180 149 149 172 160 155 127 138 135 126 126 124 126 129 127 118 124 136 146 153 157 169 177
252 249 245 242 237 232 231 229 227 227 225 224 227 227 223 223 221 217 223 232 236 235 237 237 221 207 204 202 201 198 201 205 206 207 207 205 204 203 201 199 195 193 190 184 185 182 175 174 174 174 174 174 179 185 190 204 211 156 110 143 234 195 121 49 62 42 114 143 146 140 128 109 142 154 137 148 160 147 133 126 130 122 124 142 157 163 172 179
251 248 244 241 237 231 230 227 225 225 224 224 225 226 224 222 221 216 218 226 232 234 235 236 226 209 203 200 196 196 200 201 205 210 208 204 204 204 200 198 195 191 191 190 185 184 182 177 174 175 171 165 172 174 178 195 204 199 125 149 241 181 83 55 71 57 86 135 132 121 120 103 115 138 141 174 178 174 169 155 144 138 146 156 165 172 177 182
249 247 243 240 236 231 228 226 224 223 222 224 224 225 225 221 220 216 214 218 226 231 231 229 222 212 205 196 191 193 193 194 208 212 205 203 204 203 201 197 194 188 189 190 181 183 189 182 180 181 171 161 170 170 170 186 193 180 147 168 226 157 92 66 96 83 91 117 119 113 112 98 101 126 151 162 136 238 212 193 196 176 169 170 173 180 184 188
247 245 242 239 236 230 227 225 223 222 221 223 224 225 225 221 219 215 211 214 219 221 222 223 220 217 208 193 188 189 184 185 220 213 202 202 204 203 201 196 193 190 187 187 179 182 190 184 179 175 167 158 167 174 178 181 184 182 205 229 267 119 121 140 132 113 103 104 103 103 104 111 116 131 182 183 171 246 204 198 224 211 192 184 183 187 190 195
245 243 241 239 235 230 227 225 224 220 219 221 222 224 224 220 218 213 207 209 210 211 222 229 228 224 212 195 189 185 184 173 223 210 202 199 202 202 199 196 192 189 187 183 178 180 182 175 169 167 161 154 171 172 170 175 176 174 234 244 261 122 141 159 147 131 118 107 100 101 111 140 113 105 229 212 212 226 214 272 246 214 208 197 189 192 195 202
243 241 240 237 233 230 226 224 224 220 217 220 221 221 222 218 216 211 206 205 207 215 225 230 231 227 212 195 186 183 190 193 177 205 202 198 200 199 196 195 189 186 188 181 174 177 176 172 170 169 157 143 177 168 164 175 177 163 226 232 234 174 150 163 156 143 120 107 101 103 121 142 127 205 216 217 221 226 243 276 294 198 201 195 189 196 202 207
243 241 237 234 232 228 226 224 224 221 218 219 220 220 220 217 214 210 206 203 205 215 221 223 228 223 208 189 179 180 196 198 193 199 197 198 198 195 191 188 186 184 185 180 173 173 173 173 172 169 162 157 176 171 164 168 180 187 177 222 231 186 158 169 171 170 149 119 121 106 244 250 254 254 238 243 238 222 228 248 246 187 190 192 194 200 204 208
241 239 235 234 231 226 226 224 223 221 217 217 219 219 218 216 213 210 207 204 203 207 209 216 227 221 203 187 179 182 203 194 187 188 191 198 197 191 186 179 180 179 179 179 173 171 171 173 172 171 171 169 170 170 164 157 188 197 184 204 223 173 162 177 189 196 228 217 228 259 271 271 260 259 251 252 243 223 222 227 214 189 188 192 197 202 204 209
238 236 234 233 230 226 225 222 222 219 215 216 217 218 218 215 212 211 207 203 204 206 203 209 221 220 197 183 182 193 204 191 183 195 187 197 195 185 183 180 178 178 178 179 176 176 176 174 173 177 177 167 169 169 167 167 186 184 183 194 201 177 171 187 201 214 230 225 228 222 247 260 238 215 241 243 212 200 205 202 194 189 192 197 200 204 205 210
236 234 233 232 228 225 224 221 220 218 216 215 216 218 217 215 212 211 206 202 205 207 204 204 210 214 194 181 189 199 199 190 187 201 188 194 194 184 183 183 181 182 183 182 181 184 179 172 167 173 179 164 164 166 172 179 170 178 184 186 190 200 234 215 208 216 217 225 231 222 246 259 240 215 229 229 212 186 188 183 188 192 198 203 205 206 205 209
235 233 232 231 226 222 222 219 217 217 216 215 217 218 216 217 214 210 205 200 205 205 200 201 204 205 193 188 199 197 192 188 189 196 188 191 193 189 188 187 185 186 187 184 183 184 177 169 162 165 166 151 149 153 180 175 153 171 178 168 190 249 279 244 233 225 210 224 223 209 285 268 228 218 232 234 225 207 193 186 190 196 201 205 208 211 210 211
234 232 230 228 224 220 221 217 214 215 215 215 217 217 219 218 213 210 204 200 206 205 194 195 204 199 186 193 202 194 189 186 191 191 183 189 188 186 186 184 184 185 186 182 178 176 175 169 162 160 153 149 146 135 157 151 136 148 152 131 151 86 270 235 233 228 209 224 203 168 263 254 218 227 236 241 227 209 199 197 197 200 203 205 208 214 216 214
231 230 227 226 222 218 219 215 213 213 213 215 216 217 218 215 213 209 204 202 204 207 198 193 203 197 182 197 196 189 189 184 191 187 178 182 180 179 179 178 180 181 184 183 176 170 169 166 158 154 154 155 145 129 134 124 126 132 105 93 150 174 261 238 216 204 194 226 194 159 240 246 242 241 241 250 231 211 202 202 204 204 202 203 207 213 218 219
228 227 224 223 218 214 215 212 210 210 209 212 214 214 211 210 213 209 206 206 203 205 201 193 199 194 181 204 191 183 187 180 186 186 178 180 177 175 175 175 176 177 183 184 180 171 163 162 157 149 150 152 139 128 126 89 110 138 137 206 222 191 259 300 208 185 181 214 183 159 251 253 258 251 250 259 229 209 205 205 205 207 205 202 204 211 216 221
224 223 220 218 213 211 211 208 208 209 207 210 210 208 208 207 211 214 208 206 208 203 192 187 190 183 175 202 184 177 179 178 184 185 181 182 179 174 170 172 172 175 180 182 183 178 165 163 159 148 145 151 142 130 123 105 152 231 168 183 211 194 235 320 279 186 179 164 184 191 238 258 279 251 237 234 211 200 202 205 205 208 210 204 202 208 213 217
220 219 216 212 210 209 207 205 207 206 207 211 208 205 208 209 211 217 208 207 221 204 190 188 181 175 174 184 178 174 173 177 183 180 179 182 181 174 169 169 167 165 166 171 181 180 172 169 161 147 150 166 155 139 141 150 171 210 191 178 217 204 188 220 317 207 178 152 204 224 236 240 272 274 208 196 194 194 198 205 208 209 213 210 205 208 211 214
216 214 211 209 208 205 203 205 206 205 207 207 205 204 207 210 212 214 205 206 215 195 189 188 175 169 183 176 175 175 171 173 178 176 175 178 179 175 170 167 161 155 152 155 174 177 174 174 163 139 154 182 176 161 163 172 172 182 186 190 227 207 195 202 228 202 178 166 204 216 242 242 253 272 244 212 197 200 206 207 211 213 215 213 209 209 212 216
212 209 207 206 204 200 199 200 200 203 204 201 201 201 202 204 205 207 202 200 199 188 180 174 169 169 178 173 175 173 171 172 172 172 172 172 174 171 167 163 159 156 154 153 174 176 169 162 166 162 171 180 179 174 168 171 176 176 174 172 181 195 214 212 219 200 176 173 215 212 231 243 245 255 250 242 231 224 224 220 218 219 217 214 212 213 214 218
209 205 202 202 200 198 196 193 193 197 198 196 194 191 191 189 191 200 198 200 203 197 162 165 173 175 163 165 168 165 166 169 168 169 171 171 169 162 158 157 156 158 162 164 172 174 167 164 189 184 175 176 174 178 185 181 168 162 166 177 190 202 224 212 226 221 171 165 226 222 231 250 247 247 245 246 245 234 232 232 228 224 222 218 214 215 217 221
205 201 198 199 197 195 196 192 190 192 193 194 189 185 186 181 181 185 184 202 217 216 179 170 175 176 164 160 163 162 158 164 169 169 171 171 166 158 156 158 156 165 174 160 147 161 172 185 197 184 175 172 173 182 198 199 155 144 164 181 204 211 233 236 212 192 166 162 248 233 238 255 251 254 251 246 241 230 229 230 230 226 225 224 218 217 218 223
201 198 196 196 194 191 192 190 189 189 191 192 187 187 190 189 193 188 180 194 228 232 192 173 171 167 164 163 165 162 155 156 166 168 168 167 164 160 163 166 166 166 162 149 133 155 188 200 184 173 169 164 170 184 202 216 168 134 151 165 214 206 172 349 7 170 165 175 263 248 244 254 256 257 256 247 237 235 234 232 233 230 224 224 221 218 217 221
197 196 192 191 189 186 186 187 190 191 190 190 188 190 192 191 191 184 179 161 228 220 185 171 165 155 159 163 163 159 153 153 160 168 170 167 167 166 164 169 172 157 158 164 164 174 193 191 164 161 162 160 169 186 199 220 188 155 147 155 224 201 154 239 301 254 189 197 232 320 288 269 258 254 256 247 241 242 241 237 238 236 230 227 223 220 218 219
192 192 187 182 181 181 182 185 186 187 187 188 190 194 196 196 195 179 163 108 336 194 176 169 162 159 162 163 164 162 160 162 164 169 172 168 165 165 164 166 163 159 171 172 169 174 171 153 154 155 165 166 169 186 195 200 202 208 180 172 210 198 167 169 168 162 353 322 315 21 320 287 251 242 249 247 243 244 243 239 238 236 233 231 226 222 222 223
182 182 177 174 175 175 177 180 180 180 182 184 187 192 195 198 198 184 140 70 304 175 171 173 165 162 161 161 166 165 158 164 169 169 171 169 162 158 163 168 165 165 171 165 162 166 151 153 158 160 172 173 173 189 192 179 185 228 206 190 191 172 133 123 130 111 41 329 293 54 299 289 292 258 254 255 249 245 242 236 234 234 230 228 225 221 223 226
169 170 170 173 176 175 176 177 178 180 179 182 184 186 191 196 194 181 134 57 243 168 166 175 173 162 161 162 165 158 150 163 171 168 170 171 166 160 158 167 171 168 160 154 154 163 157 160 162 166 171 173 181 193 190 165 154 222 219 190 181 147 118 130 137 124 109 251 271 91 180 266 314 290 266 263 254 249 240 233 235 234 230 227 227 226 226 226
165 168 169 174 178 177 178 175 175 177 174 178 182 179 183 189 185 173 139 341 210 163 158 169 173 167 164 164 161 156 148 149 161 172 173 170 168 164 162 168 171 164 152 145 171 194 163 162 166 171 168 174 190 191 179 156 144 224 219 179 177 152 135 150 142 138 176 210 316 15 126 261 293 268 261 259 258 262 247 237 238 235 232 231 231 230 229 227
168 168 167 171 175 174 175 171 171 175 175 175 175 171 170 176 178 167 138 256 176 142 152 163 173 171 164 164 164 159 148 147 153 180 176 171 169 166 170 175 160 156 160 162 182 172 155 166 170 168 171 183 188 181 164 159 161 237 218 170 177 164 142 148 128 117 96 81 297 306 84 275 273 262 270 258 251 262 248 237 237 233 232 231 231 232 231 228
168 168 167 168 170 171 171 168 170 175 176 171 164 161 160 165 168 157 97 232 155 135 155 159 171 170 158 161 166 154 147 154 161 172 172 172 173 172 175 171 152 145 162 159 163 158 160 174 167 160 181 188 181 187 171 167 177 194 138 100 99 92 95 111 114 107 69 115 235 242 147 227 270 257 245 232 233 247 245 237 233 232 231 231 231 232 232 230
168 170 170 169 171 175 171 166 171 175 173 168 160 159 160 158 156 150 204 214 126 156 160 156 165 160 153 158 164 149 149 155 150 157 165 169 171 167 153 157 147 135 135 67 123 152 146 168 167 169 188 171 167 187 179 169 157 124 92 82 70 49 61 64 65 89 93 254 226 204 181 173 276 265 219 210 227 230 234 243 244 240 236 234 234 234 234 233
169 171 173 176 179 179 169 159 166 171 165 161 156 157 157 151 141 176 187 132 70 197 157 152 158 153 155 158 154 153 151 141 148 153 152 142 159 147 133 146 142 130 118 69 130 141 124 163 178 181 175 157 152 178 175 160 151 120 89 110 92 26 27 31 16 56 202 245 226 190 178 172 233 261 243 243 264 246 224 234 243 243 241 239 237 237 237 236
168 169 172 178 179 177 169 157 157 160 158 155 153 154 149 136 225 198 161 80 126 201 171 165 161 154 159 159 153 157 149 143 159 158 157 157 159 158 155 163 158 147 154 159 168 163 147 176 192 136 169 164 156 163 128 147 158 135 124 135 125 99 59 202 212 351 219 237 275 178 167 195 240 259 269 267 267 256 237 234 241 244 244 245 243 242 241 238
164 163 163 166 167 165 160 153 152 153 154 155 155 153 141 174 197 173 135 141 124 162 314 194 160 153 158 159 155 158 151 153 165 163 164 164 160 172 174 171 166 163 164 159 157 150 148 271 191 155 188 178 168 173 170 171 174 163 150 153 157 153 179 200 188 268 231 235 282 174 164 237 274 271 248 250 259 262 254 245 248 252 245 242 245 243 243 238
159 158 155 155 157 157 155 153 152 152 151 152 152 150 162 189 175 94 144 175 97 185 300 298 159 155 159 162 157 156 152 159 165 163 165 164 164 177 173 172 176 161 133 144 149 163 161 197 188 178 192 176 175 179 156 129 150 164 144 143 160 164 180 194 180 196 207 224 276 214 179 200 219 250 236 242 261 275 270 248 244 251 241 215 207 213 223 232
155 156 154 151 155 162 164 161 159 159 155 148 141 157 180 188 168 129 159 157 138 173 338 350 157 157 159 160 161 163 161 162 163 163 170 170 170 172 164 175 183 160 141 155 168 173 170 193 189 168 153 162 167 155 127 119 135 203 128 134 187 186 147 140 191 179 148 129 240 226 232 210 213 274 278 270 264 270 275 246 235 241 232 210 209 208 205 214
152 154 152 149 155 161 166 166 166 166 161 151 136 176 181 204 173 167 158 147 156 156 130 5 169 162 162 155 163 172 172 160 163 162 173 176 176 174 169 177 178 167 162 162 148 168 172 185 185 150 134 168 166 156 154 154 156 171 161 170 199 172 121 124 221 146 111 172 233 204 247 287 311 289 285 284 273 272 278 249 233 231 226 220 222 225 230 235
151 151 147 144 151 155 160 164 164 162 159 153 155 171 174 338 233 187 143 140 145 138 128 132 229 168 160 155 165 170 152 148 166 164 166 174 179 176 171 172 175 173 171 157 131 181 157 120 237 159 133 174 160 148 162 171 148 144 183 176 137 83 91 134 191 1 154 223 259 205 229 273 293 270 293 309 283 266 257 245 239 232 226 229 235 240 246 250
149 148 143 145 154 156 155 160 162 159 152 132 129 142 163 179 260 307 130 138 135 128 120 132 178 331 156 156 163 164 151 153 168 164 161 170 177 172 170 170 175 177 167 150 136 155 138 98 325 212 149 154 131 127 157 219 167 148 165 160 139 140 193 164 165 200 197 218 271 244 227 231 217 231 285 291 266 246 237 234 238 232 223 228 238 243 244 244
145 138 132 150 158 163 164 164 165 160 139 63 134 140 176 134 44 8 63 157 138 121 126 106 58 357 166 159 158 162 162 162 167 163 165 171 166 174 177 171 172 175 163 150 147 156 140 123 151 282 189 153 126 144 183 197 114 104 139 160 170 162 168 173 171 171 183 198 237 277 238 237 231 214 233 253 256 247 220 214 225 221 218 225 231 230 226 220
141 126 119 157 157 167 172 163 159 155 122 129 143 115 112 121 66 22 43 108 120 82 134 142 100 63 347 165 156 163 166 162 166 169 172 171 159 174 184 175 166 169 159 145 144 149 133 122 143 127 331 174 174 199 194 183 172 159 166 180 188 163 108 156 189 149 142 169 195 216 237 255 251 212 213 236 252 250 209 196 215 217 216 223 222 216 213 208
138 116 144 161 152 158 163 154 146 149 85 113 108 84 107 111 114 22 35 64 70 45 103 121 119 110 61 179 153 161 166 162 168 171 168 174 167 175 189 181 167 162 155 140 145 158 147 127 139 141 180 188 188 213 205 187 181 177 181 183 181 172 135 157 213 195 162 186 184 181 242 269 255 215 220 232 243 245 213 191 200 213 215 220 221 218 216 209
131 100 151 163 152 150 151 139 107 149 99 122 127 116 120 101 71 11 20 44 59 49 79 102 114 103 85 346 53 124 148 162 174 173 166 183 188 188 184 178 168 164 161 151 154 150 101 109 131 138 169 178 191 296 304 174 167 159 188 184 172 175 163 180 212 197 181 208 152 127 271 275 256 227 235 239 232 229 215 195 192 207 214 220 222 217 212 208
111 94 140 157 151 147 144 112 100 133 41 94 113 96 104 96 54 32 24 30 39 40 59 92 123 115 117 224 10 52 65 155 181 181 169 182 195 184 170 169 163 164 169 155 153 144 93 110 124 110 83 39 12 328 5 67 133 157 204 188 173 194 195 190 192 162 180 203 166 183 257 268 273 260 264 301 159 187 192 175 170 180 195 206 208 202 201 206
104 101 125 150 156 155 146 109 143 143 103 113 111 103 101 89 75 72 60 45 30 39 79 89 109 115 131 148 104 53 32 105 189 193 175 180 190 161 163 167 164 169 183 164 163 172 155 148 141 133 145 83 58 247 304 215 197 193 202 196 189 196 190 169 125 134 204 209 168 181 233 246 276 298 335 11 54 101 133 150 157 159 167 181 186 190 201 211
108 101 104 145 159 158 114 120 158 142 135 131 112 118 110 75 72 85 88 78 36 38 87 83 81 106 120 116 94 73 45 51 181 198 142 158 167 149 165 173 170 174 180 159 160 165 143 155 163 157 169 173 179 192 189 189 196 189 190 194 198 195 184 184 187 184 225 209 161 189 232 254 295 313 321 330 346 185 165 162 168 172 176 181 188 200 210 213
116 113 110 134 149 147 3 9 126 120 133 136 106 93 88 87 99 88 85 86 54 46 59 45 46 97 121 121 101 107 78 45 81 311 36 151 158 152 173 177 175 176 170 155 158 154 99 166 178 177 185 185 184 175 128 128 154 175 184 189 197 193 179 184 199 212 218 184 167 228 234 250 270 269 270 275 260 240 230 199 194 202 204 202 205 215 219 218
106 94 120 122 139 157 339 19 96 114 126 124 105 76 76 95 117 82 55 72 87 75 60 48 44 88 136 141 120 126 128 65 83 333 328 184 142 152 173 178 178 175 164 156 160 151 92 182 181 183 194 190 158 127 124 143 171 183 183 186 192 185 174 188 208 218 207 162 227 239 223 227 238 225 232 253 241 228 241 227 218 214 210 215 221 226 226 222
101 106 116 99 98 144 132 124 144 126 124 112 88 128 122 106 114 94 58 79 91 77 54 61 48 46 110 141 125 135 140 101 115 157 320 244 155 138 165 179 181 171 157 159 172 155 105 180 181 183 190 179 150 146 151 165 181 187 185 188 191 186 186 199 212 218 203 189 233 236 221 232 238 212 215 240 236 228 238 242 246 235 217 223 229 229 228 224
102 112 118 98 97 118 123 142 139 118 127 124 89 144 147 129 126 115 93 108 88 35 67 76 87 82 72 51 66 142 155 145 161 177 266 280 166 143 159 171 184 174 160 165 182 160 139 172 172 173 178 175 170 164 161 170 180 190 193 195 194 191 198 205 212 221 214 213 240 244 238 244 240 204 207 229 236 247 258 269 273 261 237 232 231 230 231 226
113 129 137 104 99 123 125 124 124 124 139 123 99 149 141 130 138 124 105 137 125 158 160 104 113 123 100 48 55 128 155 99 112 166 183 197 291 72 164 160 172 175 167 166 179 176 180 175 158 158 167 195 193 177 170 175 181 189 196 200 195 193 203 212 217 223 217 221 239 244 248 253 239 177 194 216 223 237 251 257 254 246 236 233 231 232 233 228
122 137 137 120 93 117 123 94 111 132 154 128 112 139 130 138 153 130 115 179 150 150 164 131 111 116 113 102 92 156 175 51 62 97 119 131 94 47 86 189 188 169 162 155 164 186 191 172 150 154 176 210 200 182 174 173 177 192 199 199 195 194 202 208 214 215 206 214 231 236 245 253 230 158 196 211 209 221 232 231 232 233 231 231 232 233 233 231
119 129 132 120 89 101 127 98 95 124 162 199 97 122 133 153 158 134 112 209 158 151 156 138 120 114 121 144 190 234 228 49 44 44 48 60 66 64 52 15 3 161 165 165 167 178 176 161 151 163 185 205 183 161 155 145 163 204 206 197 195 199 203 207 217 221 211 209 218 227 236 239 167 160 209 214 196 211 224 224 226 227 226 229 233 233 233 231